Location: Mount Kobau Star Party
(49.1167°N, 119.7333°W)
Time: 11:03:04
(UTC-07:00)

ARIANE 6 FM1 Upper Stage - Pass Details

Date: 13 April 2026
Orbit: 526 x 601 km, 62.0° (Epoch: 18 May)

Event Time Altitude Azimuth Distance (km) Brightness Sun altitude
Rises 01:54:24 0° 317° (NW) 2,677 6.5 -30.5°
Reaches altitude 10° 01:56:55 10° 332° (NNW) 1,778 5.7 -30.4°
Maximum altitude 02:00:14 24° 28° (NNE) 1,109 4.7 -30.3°
Enters shadow 02:00:41 24° 39° (NE) 1,125 4.7 -30.2°
